Home > Weather > Sunderland > Past weeks

Flag for United Kingdom Weather for the Past 2 Weeks in Sunderland, England, United Kingdom

Now
34 °F

Scattered showers. Passing clouds.


Feels Like: 26 °F
Forecast: N/A
Wind: 10 mph from North

Location: Newcastle

Current Time: Feb 14, 2016 at 5:01:35 PM

Latest Report: Feb 14, 2016 at 4:20 PM


Visibility: N/A

Pressure: 29.71 "Hg

Humidity: 87%

Dew point: 30 °F

Location of SunderlandLocation

Historic Weather in Sunderland — Graph

°F

Sunderland Temperature Yesterday

Maximum temperature yesterday: 39 °F (at 10:20 AM)
Minimum temperature yesterday: 32 °F (at 12:50 AM)
Average temperature yesterday: 35 °F

High & Low Weather Summary for the Past Weeks

 TemperatureHumidityPressure
High54 °F (Feb 1, 1:50 AM)100% (Jan 31, 11:50 PM)30.15 "Hg (Jan 31, 11:50 PM)
Low28 °F (Feb 12, 2:20 AM)53% (Feb 2, 3:20 PM)28.56 "Hg (Feb 8, 6:20 AM)
Average40 °F81%29.41 "Hg
* Reported Jan 30 3:20 PM — Feb 14 3:50 PM, Sunderland, Weather by CustomWeather, © 2016

Note: Actual official high and low records may vary slightly from our data, if they occured in-between our weather recording intervals... More about our weather records

Advertising

Sunderland Weather History for the Previous 24 Hours

 ConditionsComfort  
Time TempWeatherWind HumidityBarometerVisibility
3:50 PM
Sun, Feb 14
34 °FScattered showers. Scattered clouds.15 mph81%29.71 "HgN/A
3:20 PM37 °FScattered showers. Passing clouds.10 mph75%29.68 "HgN/A
2:20 PM39 °FScattered showers. Passing clouds.8 mph81%29.65 "HgN/A
1:50 PM37 °FSnow flurries. Passing clouds.12 mph87%29.62 "HgN/A
1:20 PM37 °FScattered showers. Scattered clouds.12 mph87%29.62 "HgN/A
12:50 PM37 °FScattered showers. Scattered clouds.10 mph93%29.59 "HgN/A
12:20 PM37 °FScattered showers. Passing clouds.8 mph87%29.59 "HgN/A
11:50 AM36 °FScattered showers. Passing clouds.7 mph93%29.56 "HgN/A
11:20 AM34 °FScattered showers. Scattered clouds.6 mph93%29.56 "HgN/A
10:50 AM34 °FSnow flurries. Broken clouds.9 mph93%29.56 "Hg4 mi
10:20 AM36 °FScattered showers. Passing clouds.9 mph87%29.53 "HgN/A
9:50 AM34 °FPassing clouds.8 mph87%29.53 "HgN/A
9:20 AM34 °FPassing clouds.3 mph87%29.53 "HgN/A
8:50 AM34 °FScattered showers. Passing clouds.13 mph87%29.50 "HgN/A
8:20 AM34 °FScattered showers. Passing clouds.10 mph81%29.50 "HgN/A
7:20 AM30 °FPassing clouds.6 mph86%29.47 "HgN/A
6:50 AM30 °FPassing clouds.5 mph80%29.45 "HgN/A
6:20 AM28 °FPassing clouds.6 mph86%29.45 "HgN/A
5:50 AM30 °FPassing clouds.5 mph80%29.42 "HgN/A
5:20 AM30 °FPassing clouds.5 mph80%29.42 "HgN/A
4:50 AM30 °FPassing clouds.5 mph86%29.42 "HgN/A
3:50 AM30 °FPassing clouds.5 mph86%29.39 "HgN/A
2:50 AM32 °FPassing clouds.6 mph80%29.39 "HgN/A
1:50 AM32 °FPassing clouds.7 mph87%29.39 "HgN/A
12:50 AM34 °FPassing clouds.8 mph87%29.36 "HgN/A
12:20 AM34 °FPassing clouds.7 mph93%29.36 "HgN/A
11:50 PM
Sat, Feb 13
36 °FPassing clouds.9 mph87%29.36 "HgN/A
11:20 PM36 °FPassing clouds.9 mph93%29.36 "HgN/A
10:50 PM36 °FPassing clouds.9 mph93%29.36 "HgN/A
10:20 PM36 °FPassing clouds.9 mph93%29.33 "HgN/A
9:50 PM36 °FPassing clouds.7 mph93%29.33 "HgN/A
9:20 PM34 °FSprinkles. Passing clouds.7 mph93%29.33 "HgN/A
8:50 PM36 °FPassing clouds.7 mph93%29.33 "HgN/A
8:20 PM37 °FPassing clouds.8 mph93%29.33 "HgN/A
7:50 PM36 °FPassing clouds.9 mph100%29.33 "HgN/A
7:20 PM36 °FSprinkles. Passing clouds.9 mph93%29.33 "HgN/A
6:50 PM36 °FSprinkles. Partly cloudy.9 mph100%29.33 "HgN/A
6:20 PM36 °FScattered showers. Partly cloudy.5 mph93%29.33 "HgN/A
5:50 PM36 °FLight rain. Partly cloudy.6 mph93%29.33 "HgN/A
5:20 PM36 °FSprinkles. Passing clouds.13 mph93%29.30 "HgN/A
Weather by CustomWeather, © 2016

See weather overviewHow to use our weather pages